Location: Hiram
(41.3130°N, 81.1440°W)
Time: 02:02:07
(UTC-04:00)

Amateur Radio Satellites - All Passes

Search period start: 29 April 2016 01:32
Search period end: 30 April 2016 01:32
Location: Hiram, 41.3130°N, 81.1440°W

Satellite Date Start Highest point End Downlink Frequencies (MHz)
Time Altitude Azimuth
BEESAT 29 Apr 01:32:35 01:35:22 16° 62° (ENE) 01:38:08 436.000
UKube-1 29 Apr 01:36:47 01:39:23 16° 267° (W) 01:42:01 .
BUGSAT 1 29 Apr 01:37:10 01:41:24 80° 284° (WNW) 01:45:33 437.445
AISAT 29 Apr 01:42:27 01:43:20 11° 271° (W) 01:44:15 437.250
Cosmos 2499 29 Apr 01:47:29 01:53:56 38° 88° (E) 02:00:20 435.465 / 435.565
JAS-2 29 Apr 01:49:11 01:56:24 41° 96° (E) 02:03:40 435.910
CUSAT 1 29 Apr 02:06:37 02:12:06 25° 70° (ENE) 02:18:14 437.405
QB50P2 29 Apr 02:06:42 02:09:30 17° 295° (WNW) 02:12:18 145.880/145.840
POLYITAN 1 29 Apr 02:08:49 02:11:36 17° 295° (WNW) 02:14:21 437.675
DANDE 29 Apr 02:10:37 02:12:37 11° 66° (ENE) 02:14:45 436.750
DUCHIFAT 1 29 Apr 02:12:46 02:15:32 17° 295° (WNW) 02:18:17 145.980
POPSAT HIP 1 29 Apr 02:12:48 02:15:26 16° 296° (WNW) 02:18:02 437.405
O/OREOS (USA 219) 29 Apr 02:14:28 02:19:01 78° 68° (ENE) 02:23:30 437.305
SPROUT 29 Apr 02:16:07 02:17:52 12° 270° (W) 02:19:39 437.525
QB50P1 29 Apr 02:16:43 02:19:04 15° 296° (WNW) 02:21:25 145.935-145.965
RS-15 29 Apr 02:21:47 02:31:27 29° 336° (NNW) 02:41:32 29.354- 29.394
ITUPSAT 1 29 Apr 02:22:27 02:26:59 45° 71° (ENE) 02:31:32 437.325
GONETS M04 29 Apr 02:26:56 02:35:42 66° 281° (W) 02:44:32
SWISSCUBE 29 Apr 02:34:08 02:38:51 68° 74° (ENE) 02:43:35 437.505
PCSat 29 Apr 02:36:40 02:42:08 88° 60° (ENE) 02:47:34 145.827
Oscar 19 29 Apr 02:37:23 02:42:29 53° 100° (E) 02:47:32 437.125/150
AIST 1 29 Apr 02:55:09 02:58:04 18° 289° (WNW) 03:01:00
TISAT 1 29 Apr 03:07:47 03:08:40 11° 270° (W) 03:09:33 437.305
BEESAT 29 Apr 03:07:57 03:12:39 61° 259° (WSW) 03:17:22 436.000
KKS-1 29 Apr 03:11:58 03:15:10 20° 65° (ENE) 03:18:24 437.445
AO-7 29 Apr 03:31:39 03:35:32 14° 88° (E) 03:39:22 29.400- 29.500
BEESAT 3 29 Apr 03:33:55 03:35:07 11° 39° (NE) 03:36:19 437.485
JAS-2 29 Apr 03:34:10 03:41:20 46° 293° (WNW) 03:48:42 435.910
Gurwin Techsat 1B 29 Apr 03:35:18 03:40:39 75° 104° (ESE) 03:45:57 435.225
Cosmos 2499 29 Apr 03:40:35 03:47:00 36° 287° (WNW) 03:53:26 435.465 / 435.565
STARS 29 Apr 03:40:36 03:43:52 21° 65° (ENE) 03:47:09 437.465
ITAMSAT 1 29 Apr 03:46:15 03:51:05 39° 98° (E) 03:55:55 435.822/435.867
CUSAT 1 29 Apr 03:47:45 03:54:33 69° 264° (W) 04:02:27 437.405
DANDE 29 Apr 03:49:57 03:56:01 69° 80° (E) 04:03:42 436.750
ITUPSAT 1 29 Apr 04:01:42 04:05:02 19° 267° (W) 04:08:23 437.325
SWISSCUBE 29 Apr 04:15:07 04:17:06 12° 270° (W) 04:19:05 437.505
Oscar 19 29 Apr 04:17:39 04:21:24 20° 297° (WNW) 04:25:07 437.125/150
MOZHAYETS 4 29 Apr 04:18:08 04:22:37 57° 74° (ENE) 04:27:06
PCSat 29 Apr 04:22:46 04:24:43 12° 258° (WSW) 04:26:39 145.827
GONETS M04 29 Apr 04:30:45 04:34:30 13° 304° (WNW) 04:38:17
RS-15 29 Apr 04:40:19 04:49:30 24° 12° (NNE) 04:58:52 29.354- 29.394
KKS-1 29 Apr 04:47:13 04:51:27 41° 261° (W) 04:55:42 437.445
YUBILEINY 29 Apr 05:00:47 05:03:22 11° 55° (NE) 05:05:57 435.215
BEESAT 2 29 Apr 05:08:22 05:12:15 47° 54° (NE) 05:16:05 435.950
BEESAT 3 29 Apr 05:09:29 05:13:28 84° 59° (ENE) 05:17:24 437.485
STARS 29 Apr 05:15:50 05:19:58 38° 262° (W) 05:24:08 437.465
Gurwin Techsat 1B 29 Apr 05:16:57 05:19:57 15° 300° (WNW) 05:22:56 435.225
AO-7 29 Apr 05:21:11 05:29:33 76° 106° (ESE) 05:37:54 29.400- 29.500
ITAMSAT 1 29 Apr 05:26:07 05:30:22 26° 295° (WNW) 05:34:36 435.822/435.867
CUSAT 1 29 Apr 05:33:14 05:35:51 12° 278° (W) 05:38:34 437.405
DANDE 29 Apr 05:34:00 05:38:37 21° 271° (W) 05:43:56 436.750
CUBESAT XI-V 29 Apr 05:51:17 05:55:47 60° 74° (ENE) 06:00:20 437.345
MOZHAYETS 4 29 Apr 05:57:47 06:00:08 14° 269° (W) 06:02:29
AIST 2 29 Apr 06:05:11 06:08:02 18° 43° (NE) 06:10:53 435.215
HORYU 2 29 Apr 06:05:19 06:09:45 69° 102° (ESE) 06:14:08 437.375
BRITE-PL 29 Apr 06:15:38 06:17:26 11° 86° (E) 06:19:14 437.365/2234.400
CUTE-I 29 Apr 06:24:47 06:26:53 12° 89° (E) 06:28:58 437.470
LilacSat-2 29 Apr 06:45:26 06:47:28 14° 92° (E) 06:49:30 437.200
BEESAT 2 29 Apr 06:47:24 06:49:42 15° 250° (WSW) 06:51:59 435.950
YUBILEINY 29 Apr 06:53:40 07:02:17 61° 78° (ENE) 07:10:51 435.215
RS-15 29 Apr 06:54:19 07:06:05 49° 44° (NE) 07:17:53 29.354- 29.394
STRAND 1 29 Apr 07:03:07 07:07:39 33° 68° (ENE) 07:12:12 437.568
Cubesat XI-IV 29 Apr 07:05:43 07:10:23 31° 96° (E) 07:15:04 437.490
AO-7 29 Apr 07:15:02 07:21:33 27° 306° (NW) 07:28:04 29.400- 29.500
NOAA 15 29 Apr 07:18:55 07:24:12 62° 102° (ESE) 07:29:28 137.62
Cosmos 2504 29 Apr 07:19:06 07:24:40 22° 67° (ENE) 07:30:26 435.465 / 435.565
CUBESAT XI-V 29 Apr 07:31:21 07:33:34 13° 270° (W) 07:35:47 437.345
Cosmos 2491 29 Apr 07:34:55 07:43:26 56° 90° (E) 07:52:00 435.465 / 435.565
PRISM 29 Apr 07:35:37 07:37:11 12° 62° (ENE) 07:38:45 437.425
M-CUBED/EXP-1 PRIME 29 Apr 07:37:50 07:40:30 17° 96° (E) 07:43:03 437.505
NOAA 18 29 Apr 07:39:03 07:44:33 81° 105° (ESE) 07:50:00 137.9125
AIST 2 29 Apr 07:42:47 07:46:51 54° 242° (WSW) 07:50:52 435.215
HORYU 2 29 Apr 07:43:56 07:45:43 12° 299° (WNW) 07:47:30 437.375
GOMX 1 29 Apr 07:46:45 07:51:56 40° 96° (E) 07:56:55 467.674
BRITE-PL 29 Apr 07:50:54 07:56:37 85° 102° (ESE) 08:02:18 437.365/2234.400
SO-50 29 Apr 07:52:42 07:56:14 20° 110° (ESE) 07:59:46 436.795
AUBIESAT-1 29 Apr 07:59:47 08:03:05 25° 99° (E) 08:06:10 437.475
CUTE-I 29 Apr 08:02:12 08:07:32 81° 285° (WNW) 08:12:51 437.470
DOVE 4 29 Apr 08:04:32 08:09:03 29° 94° (E) 08:13:22 437.250
LilacSat-2 29 Apr 08:18:24 08:21:58 39° 288° (WNW) 08:25:30 437.200
HO-68 29 Apr 08:24:29 08:29:38 21° 92° (E) 08:34:44 435.675
STRAND 1 29 Apr 08:42:24 08:46:49 29° 264° (W) 08:51:15 437.568
Cubesat XI-IV 29 Apr 08:45:42 08:50:27 34° 293° (WNW) 08:55:11 437.490
CANX-2 29 Apr 08:51:00 08:54:34 26° 95° (E) 08:58:06 2200.000
YUBILEINY 29 Apr 08:51:24 08:58:27 29° 278° (W) 09:05:32 435.215
NOAA 15 29 Apr 08:59:56 09:03:27 18° 299° (WNW) 09:06:58 137.62
RS-15 29 Apr 09:07:05 09:18:59 60° 247° (WSW) 09:30:52 29.354- 29.394
PRISM 29 Apr 09:07:59 09:11:59 60° 258° (WSW) 09:16:02 437.425
AAUSAT CUBESAT 2 29 Apr 09:10:50 09:13:25 16° 92° (E) 09:15:58 437.432
Cosmos 2504 29 Apr 09:11:12 09:18:40 73° 266° (W) 09:26:40 435.465 / 435.565
ISS 29 Apr 09:11:17 09:14:21 38° 138° (SE) 09:17:25 145.825
M-CUBED/EXP-1 PRIME 29 Apr 09:11:30 09:15:16 36° 295° (WNW) 09:18:45 437.505
CINEMA 3 29 Apr 09:18:26 09:23:02 49° 98° (E) 09:27:24 145.822/145.860
NOAA 18 29 Apr 09:21:33 09:24:30 15° 302° (WNW) 09:27:26 137.9125
CUTE 1.7 + AOD 2 29 Apr 09:24:11 09:28:20 55° 100° (E) 09:32:27 437.475
GOMX 1 29 Apr 09:25:10 09:29:45 28° 294° (WNW) 09:34:14 467.674
BRITE-PL 29 Apr 09:31:11 09:34:19 15° 300° (WNW) 09:37:27 437.365/2234.400
SO-50 29 Apr 09:31:32 09:36:20 53° 307° (NW) 09:41:10 436.795
Cosmos 2491 29 Apr 09:32:58 09:40:40 33° 291° (WNW) 09:48:26 435.465 / 435.565
AUBIESAT-1 29 Apr 09:34:12 09:37:30 25° 298° (WNW) 09:40:37 437.475
ZACube-1 29 Apr 09:40:51 09:42:19 12° 89° (E) 09:43:46 437.345
DOVE 4 29 Apr 09:42:03 09:46:43 34° 292° (WNW) 09:51:12 437.250
CUTE-I 29 Apr 09:45:11 09:46:43 11° 303° (WNW) 09:48:15 437.470
UNISAT 6 29 Apr 09:56:52 10:00:18 21° 66° (ENE) 10:03:42 437.425
SEEDS 29 Apr 09:59:00 10:03:12 81° 282° (WNW) 10:07:22 437.485
COMPASS 1 29 Apr 10:10:02 10:14:12 84° 283° (WNW) 10:18:21 437.405
HO-68 29 Apr 10:10:49 10:17:57 72° 289° (WNW) 10:25:03 435.675
TIGRISAT 29 Apr 10:15:09 10:19:11 29° 69° (ENE) 10:23:10 435.000
CANX-2 29 Apr 10:26:51 10:30:21 26° 291° (WNW) 10:33:50 2200.000
Oscar 11 29 Apr 10:29:06 10:33:17 49° 99° (E) 10:37:27 145.826/435.025
CUBEBUG 2 29 Apr 10:33:27 10:37:52 79° 284° (WNW) 10:42:05 437.445
UWE-3 29 Apr 10:34:42 10:39:01 75° 102° (ESE) 10:43:12 435.000/436.395/437.385
FUNcube-1 29 Apr 10:34:51 10:38:56 45° 99° (E) 10:42:54 145.935
ANTELSAT 29 Apr 10:37:55 10:42:28 52° 73° (ENE) 10:46:57 437.575/2403.000
GONETS M04 29 Apr 10:43:40 10:47:06 13° 56° (NE) 10:50:31
AAUSAT CUBESAT 2 29 Apr 10:45:12 10:49:05 41° 288° (WNW) 10:52:58 437.432
ISS 29 Apr 10:47:57 10:50:52 29° 335° (NNW) 10:53:47 145.825
CINEMA 3 29 Apr 10:56:37 10:59:43 18° 297° (WNW) 11:02:45 145.822/145.860
DELFI C3 29 Apr 10:57:00 11:00:52 49° 99° (E) 11:04:43 145.870
CUTE 1.7 + AOD 2 29 Apr 11:01:38 11:03:43 14° 296° (WNW) 11:05:47 437.475
Cosmos 2504 29 Apr 11:08:39 11:10:45 11° 283° (WNW) 11:12:52 435.465 / 435.565
ZACube-1 29 Apr 11:14:50 11:19:01 57° 286° (WNW) 11:23:06 437.345
SO-50 29 Apr 11:16:30 11:17:57 11° 327° (NNW) 11:19:23 436.795
HUMSAT D 29 Apr 11:17:50 11:21:37 35° 98° (E) 11:25:21 437.325/437.525
QB50P2 29 Apr 11:22:35 11:26:23 32° 70° (ENE) 11:30:13 145.880/145.840
POLYITAN 1 29 Apr 11:24:39 11:28:29 32° 70° (ENE) 11:32:20 437.675
RS-15 29 Apr 11:25:37 11:28:41 11° 268° (W) 11:31:45 29.354- 29.394
AIST 1 29 Apr 11:25:38 11:26:31 10° 67° (ENE) 11:27:25
PHONESAT 2.4 29 Apr 11:26:49 11:27:55 11° 148° (SSE) 11:29:03 2401.200-2431.200
DUCHIFAT 1 29 Apr 11:28:01 11:31:47 31° 70° (ENE) 11:35:35 145.980
POPSAT HIP 1 29 Apr 11:28:20 11:32:13 34° 70° (ENE) 11:36:07 437.405
QB50P1 29 Apr 11:31:52 11:35:50 38° 71° (ENE) 11:39:49 145.935-145.965
UNISAT 6 29 Apr 11:32:17 11:36:43 42° 262° (W) 11:41:08 437.425
Cosmos 2499 29 Apr 11:38:43 11:42:15 13° 61° (ENE) 11:45:53 435.465 / 435.565
TIGRISAT 29 Apr 11:51:45 11:55:48 28° 264° (W) 11:59:49 435.000
AISAT 29 Apr 11:53:53 11:56:05 13° 91° (E) 11:58:18 437.250
ESTCUBE 1 29 Apr 11:55:05 11:58:19 19° 93° (E) 12:01:32 437.505/2401.250
HO-68 29 Apr 12:00:51 12:04:27 15° 309° (NW) 12:08:02 435.675
JAS-2 29 Apr 12:04:21 12:07:49 16° 54° (NE) 12:11:27 435.910
Oscar 11 29 Apr 12:06:28 12:09:00 15° 296° (WNW) 12:11:32 145.826/435.025
NANOSAT C BR1 29 Apr 12:08:39 12:12:56 85° 257° (WSW) 12:17:14 145.865
FUNcube-1 29 Apr 12:12:16 12:14:47 16° 296° (WNW) 12:17:16 145.935
UWE-3 29 Apr 12:13:59 12:14:49 10° 299° (WNW) 12:15:39 435.000/436.395/437.385
ANTELSAT 29 Apr 12:16:36 12:19:26 16° 268° (W) 12:22:16 437.575/2403.000
Oscar 19 29 Apr 12:20:09 12:20:51 10° 57° (ENE) 12:21:31 437.125/150
ISS 29 Apr 12:26:20 12:28:07 14° 355° (N) 12:29:56 145.825
BUGSAT 1 29 Apr 12:26:23 12:30:35 69° 74° (ENE) 12:34:49 437.445
DELFI C3 29 Apr 12:33:22 12:35:20 13° 295° (WNW) 12:37:17 145.870
GONETS M04 29 Apr 12:37:13 12:45:58 64° 79° (E) 12:54:34
CUBEBUG 1 29 Apr 12:40:31 12:44:44 40° 98° (E) 12:48:54 437.445
HUMSAT D 29 Apr 12:54:10 12:56:59 18° 294° (WNW) 12:59:47 437.325/437.525
VELOX 1 29 Apr 12:56:56 13:01:23 62° 101° (E) 13:05:48 145.980
QB50P2 29 Apr 12:58:53 13:02:14 22° 266° (W) 13:05:36 145.880/145.840
AIST 1 29 Apr 13:00:15 13:04:39 71° 265° (W) 13:09:02
POLYITAN 1 29 Apr 13:01:00 13:04:20 22° 266° (W) 13:07:41 437.675
PHONESAT 2.4 29 Apr 13:01:18 13:04:18 42° 163° (SSE) 13:07:19 2401.200-2431.200
DUCHIFAT 1 29 Apr 13:04:11 13:07:31 22° 266° (W) 13:10:53 145.980
POPSAT HIP 1 29 Apr 13:04:52 13:08:05 20° 266° (W) 13:11:18 437.405
DX 1 29 Apr 13:07:47 13:12:11 73° 101° (ESE) 13:16:34 434.975-435.025
QB50P1 29 Apr 13:08:46 13:11:45 18° 267° (W) 13:14:45 145.935-145.965
AO-85 29 Apr 13:13:17 13:16:59 19° 108° (ESE) 13:20:40 145.980
50 SAT 29 Apr 13:16:09 13:19:44 56° 286° (WNW) 13:23:19 437.505
Gurwin Techsat 1B 29 Apr 13:19:15 13:22:25 16° 60° (ENE) 13:25:34 435.225
UKube-1 29 Apr 13:21:42 13:26:05 85° 102° (ESE) 13:30:25 .
AISAT 29 Apr 13:28:31 13:32:56 57° 287° (WNW) 13:37:18 437.250
Cosmos 2499 29 Apr 13:29:00 13:36:37 74° 81° (E) 13:44:51 435.465 / 435.565
ESTCUBE 1 29 Apr 13:31:02 13:35:17 41° 289° (WNW) 13:39:31 437.505/2401.250
JAS-2 29 Apr 13:46:00 13:51:45 89° 256° (WSW) 13:58:21 435.910
Oscar 19 29 Apr 13:54:06 13:59:15 77° 74° (ENE) 14:04:27 437.125/150
SPROUT 29 Apr 13:59:05 14:03:23 71° 285° (WNW) 14:07:38 437.525
ISS 29 Apr 14:03:13 14:05:34 18° 16° (NNE) 14:07:54 145.825
CUBEBUG 1 29 Apr 14:17:32 14:20:43 20° 295° (WNW) 14:23:53 437.445
ITUPSAT 1 29 Apr 14:25:13 14:26:42 11° 90° (E) 14:28:11 437.325
AO-7 29 Apr 14:30:15 14:36:25 24° 53° (NE) 14:42:33 29.400- 29.500
VELOX 1 29 Apr 14:35:05 14:37:20 14° 298° (WNW) 14:39:34 145.980
GONETS M04 29 Apr 14:35:08 14:42:02 27° 278° (W) 14:48:55
SWISSCUBE 29 Apr 14:35:24 14:38:30 17° 92° (E) 14:41:36 437.505
PHONESAT 2.4 29 Apr 14:37:54 14:41:03 78° 180° (S) 14:44:14 2401.200-2431.200
DX 1 29 Apr 14:46:16 14:47:46 12° 299° (WNW) 14:49:16 434.975-435.025
TISAT 1 29 Apr 14:47:50 14:52:03 69° 286° (WNW) 14:56:14 437.305
AO-85 29 Apr 14:51:33 14:57:00 67° 304° (NW) 15:02:24 145.980
Gurwin Techsat 1B 29 Apr 14:56:28 15:01:45 71° 257° (WSW) 15:07:05 435.225
ITAMSAT 1 29 Apr 15:04:07 15:09:13 60° 72° (ENE) 15:14:19 435.822/435.867
BEESAT 29 Apr 15:08:10 15:12:28 33° 97° (E) 15:16:45 436.000
Cosmos 2499 29 Apr 15:23:39 15:28:59 21° 278° (W) 15:34:35 435.465 / 435.565
JAS-2 29 Apr 15:35:46 15:37:59 12° 276° (W) 15:40:17 435.910
Oscar 19 29 Apr 15:36:58 15:39:08 13° 271° (W) 15:41:19 437.125/150
ISS 29 Apr 15:39:13 15:42:29 71° 34° (NE) 15:45:44 145.825
PCSat 29 Apr 15:40:18 15:40:55 10° 101° (E) 15:41:32 145.827
ITUPSAT 1 29 Apr 16:00:17 16:05:03 74° 286° (WNW) 16:09:48 437.325
SWISSCUBE 29 Apr 16:11:58 16:16:34 50° 288° (WNW) 16:21:09 437.505
MOZHAYETS 4 29 Apr 16:14:46 16:16:58 13° 90° (E) 16:19:09
PHONESAT 2.4 29 Apr 16:14:47 16:17:51 47° 196° (SSW) 16:20:55 2401.200-2431.200
AO-7 29 Apr 16:19:57 16:28:15 83° 253° (WSW) 16:36:35 29.400- 29.500
SO-50 29 Apr 16:23:20 16:26:57 21° 42° (NE) 16:30:29 436.795
O/OREOS (USA 219) 29 Apr 16:26:23 16:30:59 88° 301° (WNW) 16:35:36 437.305
AO-85 29 Apr 16:35:28 16:38:29 15° 324° (NW) 16:41:29 145.980
KKS-1 29 Apr 16:38:00 16:42:08 36° 98° (E) 16:46:15 437.445
ITAMSAT 1 29 Apr 16:45:53 16:49:05 16° 269° (W) 16:52:16 435.822/435.867
BEESAT 29 Apr 16:46:10 16:50:07 26° 293° (WNW) 16:54:02 436.000
CUSAT 1 29 Apr 16:53:45 16:56:48 45° 286° (WNW) 17:00:41 437.405
DANDE 29 Apr 17:02:31 17:05:10 67° 96° (E) 17:08:19 436.750
NOAA 15 29 Apr 17:02:41 17:05:14 14° 59° (ENE) 17:07:46 137.62
HORYU 2 29 Apr 17:03:02 17:07:27 64° 74° (ENE) 17:11:54 437.375
STARS 29 Apr 17:05:02 17:09:08 36° 98° (E) 17:13:11 437.465
ISS 29 Apr 17:16:59 17:18:33 13° 230° (SW) 17:20:07 145.825
PCSat 29 Apr 17:17:59 17:23:24 83° 117° (ESE) 17:28:52 145.827
NOAA 18 29 Apr 17:26:42 17:30:49 22° 62° (ENE) 17:34:55 137.9125
BRITE-PL 29 Apr 17:27:13 17:28:48 11° 58° (ENE) 17:30:25 437.365/2234.400
Cosmos 2491 29 Apr 17:45:41 17:53:00 28° 67° (ENE) 18:00:14 435.465 / 435.565
CUTE-I 29 Apr 17:45:47 17:49:49 22° 63° (ENE) 17:53:51 437.470
CUBESAT XI-V 29 Apr 17:49:03 17:51:47 15° 91° (E) 17:54:30 437.345
MOZHAYETS 4 29 Apr 17:50:01 17:54:30 59° 286° (WNW) 17:58:59
PHONESAT 2.4 29 Apr 17:52:35 17:54:17 14° 211° (SSW) 17:55:59 2401.200-2431.200
SO-50 29 Apr 18:03:11 18:07:49 57° 242° (WSW) 18:12:17 436.795
YUBILEINY 29 Apr 18:04:50 18:07:43 12° 73° (ENE) 18:10:35 435.215
O/OREOS (USA 219) 29 Apr 18:09:43 18:11:05 11° 310° (NW) 18:12:29 437.305
KKS-1 29 Apr 18:15:04 18:18:29 22° 294° (WNW) 18:21:53 437.445
AO-7 29 Apr 18:17:30 18:22:09 16° 271° (W) 18:26:49 29.400- 29.500
M-CUBED/EXP-1 PRIME 29 Apr 18:22:57 18:26:59 29° 63° (ENE) 18:31:00 437.505
Cubesat XI-IV 29 Apr 18:27:35 18:32:43 51° 71° (ENE) 18:37:53 437.490
NOAA 15 29 Apr 18:39:01 18:44:16 83° 257° (WSW) 18:49:35 137.62
STARS 29 Apr 18:41:56 18:45:15 21° 294° (WNW) 18:48:33 437.465
HORYU 2 29 Apr 18:42:41 18:44:25 12° 270° (W) 18:46:10 437.375
AUBIESAT-1 29 Apr 18:44:37 18:48:55 38° 65° (ENE) 18:53:12 437.475
GOMX 1 29 Apr 18:54:30 18:59:05 40° 70° (ENE) 19:03:57 467.674
HO-68 29 Apr 18:54:48 18:59:10 18° 54° (NE) 19:03:32 435.675
LilacSat-2 29 Apr 18:59:42 19:03:36 84° 258° (WSW) 19:07:30 437.200
BRITE-PL 29 Apr 19:01:41 19:06:21 88° 257° (WSW) 19:11:29 437.365/2234.400
BEESAT 3 29 Apr 19:02:12 19:04:10 13° 109° (ESE) 19:06:08 437.485
PCSat 29 Apr 19:03:50 19:07:29 18° 317° (NW) 19:11:09 145.827
NOAA 18 29 Apr 19:05:40 19:11:04 54° 259° (W) 19:16:28 137.9125
DOVE 4 29 Apr 19:09:30 19:13:50 30° 67° (ENE) 19:18:20 437.250
STRAND 1 29 Apr 19:16:24 19:17:11 10° 88° (E) 19:17:58 437.568
CUTE-I 29 Apr 19:24:22 19:29:31 49° 260° (W) 19:34:41 437.470
CUBESAT XI-V 29 Apr 19:24:54 19:29:29 55° 287° (WNW) 19:34:03 437.345
Cosmos 2491 29 Apr 19:41:48 19:50:31 66° 268° (W) 19:59:08 435.465 / 435.565
CANX-2 29 Apr 19:44:18 19:47:22 20° 67° (ENE) 19:50:25 2200.000
YUBILEINY 29 Apr 19:54:07 20:02:46 70° 93° (E) 20:11:25 435.215
M-CUBED/EXP-1 PRIME 29 Apr 19:57:06 20:01:22 33° 259° (WSW) 20:05:39 437.505
Cosmos 2504 29 Apr 20:00:45 20:04:41 15° 79° (E) 20:08:33 435.465 / 435.565
AAUSAT CUBESAT 2 29 Apr 20:02:42 20:04:04 11° 63° (ENE) 20:05:25 437.432
Cubesat XI-IV 29 Apr 20:09:12 20:13:04 20° 267° (W) 20:16:58 437.490
CUTE 1.7 + AOD 2 29 Apr 20:16:47 20:20:42 38° 72° (ENE) 20:24:38 437.475
CINEMA 3 29 Apr 20:19:09 20:23:55 47° 72° (ENE) 20:28:44 145.822/145.860
AUBIESAT-1 29 Apr 20:19:41 20:23:26 24° 261° (W) 20:27:10 437.475
GOMX 1 29 Apr 20:33:23 20:37:19 24° 268° (W) 20:41:28 467.674
ZACube-1 29 Apr 20:37:11 20:38:42 12° 62° (ENE) 20:40:13 437.345
BEESAT 3 29 Apr 20:37:35 20:41:25 52° 306° (NW) 20:45:19 437.485
BEESAT 2 29 Apr 20:37:40 20:41:38 89° 289° (WNW) 20:45:39 435.950
HO-68 29 Apr 20:38:41 20:45:52 85° 72° (ENE) 20:53:03 435.675
DOVE 4 29 Apr 20:46:52 20:51:23 34° 265° (W) 20:56:07 437.250
PRISM 29 Apr 20:50:19 20:53:11 18° 94° (E) 20:56:03 437.425
SEEDS 29 Apr 20:50:23 20:54:32 68° 76° (ENE) 20:58:42 437.485
STRAND 1 29 Apr 20:51:52 20:57:01 87° 282° (WNW) 21:02:07 437.568
COMPASS 1 29 Apr 21:00:30 21:04:35 63° 75° (ENE) 21:08:41 437.405
CANX-2 29 Apr 21:19:06 21:22:59 35° 263° (W) 21:26:53 2200.000
RS-15 29 Apr 21:21:15 21:29:28 24° 100° (E) 21:37:56 29.354- 29.394
Oscar 11 29 Apr 21:23:45 21:27:44 38° 71° (ENE) 21:31:44 145.826/435.025
FUNcube-1 29 Apr 21:29:57 21:34:07 37° 72° (ENE) 21:38:16 145.935
CUBEBUG 2 29 Apr 21:30:36 21:35:22 85° 79° (E) 21:40:07 437.445
UWE-3 29 Apr 21:30:56 21:35:31 61° 74° (ENE) 21:40:04 435.000/436.395/437.385
AAUSAT CUBESAT 2 29 Apr 21:34:56 21:39:01 63° 259° (W) 21:43:07 437.432
AIST 2 29 Apr 21:40:28 21:44:03 29° 114° (ESE) 21:47:39 435.215
DELFI C3 29 Apr 21:43:17 21:46:41 28° 70° (ENE) 21:50:05 145.870
Cosmos 2491 29 Apr 21:43:21 21:45:28 11° 288° (WNW) 21:47:34 435.465 / 435.565
AO-85 29 Apr 21:44:32 21:47:50 18° 39° (NE) 21:50:58 145.980
Cosmos 2504 29 Apr 21:49:39 21:57:02 84° 277° (W) 22:04:15 435.465 / 435.565
YUBILEINY 29 Apr 21:53:21 22:00:19 26° 294° (WNW) 22:07:20 435.215
CUTE 1.7 + AOD 2 29 Apr 21:53:51 21:56:42 18° 267° (W) 21:59:33 437.475
CINEMA 3 29 Apr 21:57:35 22:01:15 20° 268° (W) 22:04:57 145.822/145.860
HUMSAT D 29 Apr 22:09:13 22:12:45 26° 69° (ENE) 22:16:17 437.325/437.525
ZACube-1 29 Apr 22:09:49 22:14:23 77° 258° (WSW) 22:18:54 437.345
BEESAT 2 29 Apr 22:18:34 22:20:06 12° 321° (NW) 22:21:38 435.950
PRISM 29 Apr 22:24:47 22:28:38 37° 289° (WNW) 22:32:28 437.425
HO-68 29 Apr 22:30:00 22:34:22 17° 270° (W) 22:38:46 435.675
STRAND 1 29 Apr 22:33:43 22:35:23 12° 302° (WNW) 22:37:04 437.568
COMPASS 1 29 Apr 22:40:02 22:40:33 10° 271° (W) 22:41:05 437.405
AISAT 29 Apr 22:51:55 22:54:01 13° 62° (ENE) 22:56:07 437.250
ESTCUBE 1 29 Apr 22:55:05 22:58:08 18° 65° (ENE) 23:01:11 437.505/2401.250
Oscar 11 29 Apr 23:00:57 23:04:00 19° 267° (W) 23:07:03 145.826/435.025
FUNcube-1 29 Apr 23:07:03 23:10:28 21° 266° (W) 23:13:51 145.935
UWE-3 29 Apr 23:10:00 23:12:20 14° 270° (W) 23:14:39 435.000/436.395/437.385
DELFI C3 29 Apr 23:18:34 23:21:34 21° 266° (W) 23:24:35 145.870
AIST 2 29 Apr 23:18:55 23:22:29 28° 311° (NW) 23:26:06 435.215
UNISAT 6 29 Apr 23:24:05 23:28:10 38° 98° (E) 23:32:10 437.425
AO-85 29 Apr 23:24:10 23:28:58 74° 240° (WSW) 23:33:18 145.980
RS-15 29 Apr 23:28:55 23:40:13 88° 302° (WNW) 23:52:15 29.354- 29.394
CUBEBUG 1 29 Apr 23:36:29 23:40:25 33° 70° (ENE) 23:44:22 437.445
TIGRISAT 29 Apr 23:42:42 23:47:01 59° 100° (E) 23:51:14 435.000
HUMSAT D 29 Apr 23:44:45 23:48:19 26° 265° (W) 23:51:52 437.325/437.525
GONETS M04 29 Apr 23:47:29 23:51:14 13° 74° (ENE) 23:54:58
Cosmos 2504 29 Apr 23:47:59 23:51:33 14° 298° (WNW) 23:55:07 435.465 / 435.565
VELOX 1 29 Apr 23:54:02 23:58:20 54° 73° (ENE) 00:02:42 145.980
NANOSAT C BR1 29 Apr 23:54:28 23:56:57 15° 92° (E) 23:59:25 145.865
50 SAT 29 Apr 23:54:33 23:58:09 62° 75° (ENE) 00:01:47 437.505
DX 1 30 Apr 00:03:02 00:07:19 62° 74° (ENE) 00:11:39 434.975-435.025
ANTELSAT 30 Apr 00:06:17 00:10:39 71° 285° (WNW) 00:14:53 437.575/2403.000
UKube-1 30 Apr 00:15:57 00:20:14 71° 75° (ENE) 00:24:34 .
PCSat 30 Apr 00:24:22 00:26:49 13° 38° (NE) 00:29:16 145.827
AISAT 30 Apr 00:25:33 00:29:57 64° 259° (WSW) 00:34:24 437.250
ESTCUBE 1 30 Apr 00:30:20 00:34:36 44° 261° (W) 00:38:54 437.505/2401.250
QB50P2 30 Apr 00:42:41 00:46:54 59° 100° (E) 00:51:04 145.880/145.840
POLYITAN 1 30 Apr 00:44:48 00:49:01 60° 101° (E) 00:53:10 437.675
DUCHIFAT 1 30 Apr 00:47:13 00:51:24 56° 100° (E) 00:55:31 145.980
POPSAT HIP 1 30 Apr 00:48:21 00:52:35 64° 101° (E) 00:56:46 437.405
QB50P1 30 Apr 00:51:54 00:56:10 72° 101° (E) 01:00:22 145.935-145.965
SPROUT 30 Apr 00:52:14 00:56:33 86° 77° (ENE) 01:00:54 437.525
JAS-2 30 Apr 00:56:05 01:00:48 17° 87° (E) 01:05:30 435.910
O/OREOS (USA 219) 30 Apr 00:58:04 01:01:21 19° 55° (NE) 01:04:35 437.305
UNISAT 6 30 Apr 01:01:31 01:04:36 19° 295° (WNW) 01:07:39 437.425
CUBEBUG 1 30 Apr 01:13:23 01:16:45 22° 266° (W) 01:20:10 437.445
TIGRISAT 30 Apr 01:21:07 01:23:11 13° 298° (WNW) 01:25:14 435.000
